owner,sensor,date,latitude,longitude,dew_point_temperature,qcFlag 
ADCP,ioos:station:wmo:42887:1,2013-04-02T23:20:00Z,28.1910,-88.4960,16.5,11111222 
ADCP,ioos:station:wmo:42887:1,2013-04-02T23:40:00Z,28.1910,-88.4960,16.4,11111222 
ADCP,ioos:station:wmo:42887:1,2013-04-03T00:00:00Z,28.1910,-88.4960,17.0,11111222 
ADCP,ioos:station:wmo:42887:1,2013-04-03T00:20:00Z,28.1910,-88.4960,17.1,11111222 
ADCP,ioos:station:wmo:42887:1,2013-04-03T00:40:00Z,28.1910,-88.4960,17.0,11111222 
ADCP,ioos:station:wmo:42887:1,2013-04-03T01:00:00Z,28.1910,-88.4960,17.1,11111222 
ADCP,ioos:station:wmo:42887:1,2013-04-03T01:20:00Z,28.1910,-88.4960,17.1,11111222 
ADCP,ioos:station:wmo:42887:1,2013-04-03T01:40:00Z,28.1910,-88.4960,17.2,11111222 
ADCP,ioos:station:wmo:42887:1,2013-04-03T02:00:00Z,28.1910,-88.4960,17.4,11111222 
ADCP,ioos:station:wmo:42887:1,2013-04-03T02:20:00Z,28.1910,-88.4960,17.6,11111222 
ADCP,ioos:station:wmo:42887:1,2013-04-03T02:40:00Z,28.1910,-88.4960,17.7,11111222 
ADCP,ioos:station:wmo:42887:1,2013-04-03T03:00:00Z,28.1910,-88.4960,17.7,11111222 
ADCP,ioos:station:wmo:42887:1,2013-04-03T03:20:00Z,28.1910,-88.4960,17.8,11111222 
ADCP,ioos:station:wmo:42887:1,2013-04-03T03:40:00Z,28.1910,-88.4960,17.7,11111222 
ADCP,ioos:station:wmo:42887:1,2013-04-03T04:00:00Z,28.1910,-88.4960,17.7,11111222 
ADCP,ioos:station:wmo:42887:1,2013-04-03T04:20:00Z,28.1910,-88.4960,17.8,11111222 
ADCP,ioos:station:wmo:42887:1,2013-04-03T04:40:00Z,28.1910,-88.4960,17.9,11111222 
ADCP,ioos:station:wmo:42887:1,2013-04-03T05:00:00Z,28.1910,-88.4960,18.1,11111222 
ADCP,ioos:station:wmo:42887:1,2013-04-03T05:20:00Z,28.1910,-88.4960,18.2,11111222 
ADCP,ioos:station:wmo:42887:1,2013-04-03T05:40:00Z,28.1910,-88.4960,17.7,11111222 
ADCP,ioos:station:wmo:42887:1,2013-04-03T06:00:00Z,28.1910,-88.4960,16.4,11111222 
ADCP,ioos:station:wmo:42887:1,2013-04-03T06:20:00Z,28.1910,-88.4960,14.6,11111222 
ADCP,ioos:station:wmo:42887:1,2013-04-03T06:40:00Z,28.1910,-88.4960,15.3,11111222 
ADCP,ioos:station:wmo:42887:1,2013-04-03T07:00:00Z,28.1910,-88.4960,17.4,11111222 
ADCP,ioos:station:wmo:42887:1,2013-04-03T07:20:00Z,28.1910,-88.4960,18.4,11111222 
ADCP,ioos:station:wmo:42887:1,2013-04-03T07:40:00Z,28.1910,-88.4960,18.5,11111222 
ADCP,ioos:station:wmo:42887:1,2013-04-03T08:00:00Z,28.1910,-88.4960,18.4,11111222 
ADCP,ioos:station:wmo:42887:1,2013-04-03T08:20:00Z,28.1910,-88.4960,18.4,11111222 
ADCP,ioos:station:wmo:42887:1,2013-04-03T08:40:00Z,28.1910,-88.4960,18.2,11111222 
ADCP,ioos:station:wmo:42887:1,2013-04-03T09:00:00Z,28.1910,-88.4960,18.1,11111222 
ADCP,ioos:station:wmo:42887:1,2013-04-03T09:20:00Z,28.1910,-88.4960,18.2,11111222 
ADCP,ioos:station:wmo:42887:1,2013-04-03T09:40:00Z,28.1910,-88.4960,18.1,11111222 
ADCP,ioos:station:wmo:42887:1,2013-04-03T10:00:00Z,28.1910,-88.4960,18.1,11111222 
ADCP,ioos:station:wmo:42887:1,2013-04-03T10:20:00Z,28.1910,-88.4960,18.3,11111222 
ADCP,ioos:station:wmo:42887:1,2013-04-03T10:40:00Z,28.1910,-88.4960,18.3,11111222 
ADCP,ioos:station:wmo:42887:1,2013-04-03T11:00:00Z,28.1910,-88.4960,18.3,11111222 
ADCP,ioos:station:wmo:42887:1,2013-04-03T11:20:00Z,28.1910,-88.4960,18.3,11111222 
ADCP,ioos:station:wmo:42887:1,2013-04-03T11:40:00Z,28.1910,-88.4960,18.2,11111222 
ADCP,ioos:station:wmo:42887:1,2013-04-03T12:00:00Z,28.1910,-88.4960,18.1,11111222 
ADCP,ioos:station:wmo:42887:1,2013-04-03T12:20:00Z,28.1910,-88.4960,17.8,11111222 
ADCP,ioos:station:wmo:42887:1,2013-04-03T12:40:00Z,28.1910,-88.4960,17.9,11111222 
ADCP,ioos:station:wmo:42887:1,2013-04-03T13:00:00Z,28.1910,-88.4960,17.6,11111222 
ADCP,ioos:station:wmo:42887:1,2013-04-03T13:20:00Z,28.1910,-88.4960,17.5,11111222 
ADCP,ioos:station:wmo:42887:1,2013-04-03T13:40:00Z,28.1910,-88.4960,17.2,11111222 
ADCP,ioos:station:wmo:42887:1,2013-04-03T14:00:00Z,28.1910,-88.4960,17.0,11111222 
ADCP,ioos:station:wmo:42887:1,2013-04-03T14:20:00Z,28.1910,-88.4960,16.6,11111222 
ADCP,ioos:station:wmo:42887:1,2013-04-03T14:40:00Z,28.1910,-88.4960,15.9,11111222 
ADCP,ioos:station:wmo:42887:1,2013-04-03T15:00:00Z,28.1910,-88.4960,15.5,11111222 
ADCP,ioos:station:wmo:42887:1,2013-04-03T15:20:00Z,28.1910,-88.4960,15.2,11111222 
ADCP,ioos:station:wmo:42887:1,2013-04-03T15:40:00Z,28.1910,-88.4960,15.7,11111222 
ADCP,ioos:station:wmo:42887:1,2013-04-03T16:00:00Z,28.1910,-88.4960,16.5,11111222 
ADCP,ioos:station:wmo:42887:1,2013-04-03T16:20:00Z,28.1910,-88.4960,16.7,11111222 
ADCP,ioos:station:wmo:42887:1,2013-04-03T16:40:00Z,28.1910,-88.4960,16.8,11111222 
ADCP,ioos:station:wmo:42887:1,2013-04-03T17:00:00Z,28.1910,-88.4960,17.4,11111222 
ADCP,ioos:station:wmo:42887:1,2013-04-03T17:20:00Z,28.1910,-88.4960,17.4,11111222 
ADCP,ioos:station:wmo:42887:1,2013-04-03T17:40:00Z,28.1910,-88.4960,17.6,11111222 
ADCP,ioos:station:wmo:42887:1,2013-04-03T18:00:00Z,28.1910,-88.4960,17.2,11111222 
ADCP,ioos:station:wmo:42887:1,2013-04-03T18:20:00Z,28.1910,-88.4960,17.3,11111222 
ADCP,ioos:station:wmo:42887:1,2013-04-03T18:40:00Z,28.1910,-88.4960,15.5,11111222 
ADCP,ioos:station:wmo:42887:1,2013-04-03T19:00:00Z,28.1910,-88.4960,14.7,11111222 
ADCP,ioos:station:wmo:42887:1,2013-04-03T19:20:00Z,28.1910,-88.4960,14.6,11111222 
ADCP,ioos:station:wmo:42887:1,2013-04-03T19:40:00Z,28.1910,-88.4960,14.8,11111222 
ADCP,ioos:station:wmo:42887:1,2013-04-03T20:00:00Z,28.1910,-88.4960,14.1,11111222 
ADCP,ioos:station:wmo:42887:1,2013-04-03T20:20:00Z,28.1910,-88.4960,12.7,11111222 
ADCP,ioos:station:wmo:42887:1,2013-04-03T20:40:00Z,28.1910,-88.4960,10.3,11111222 
ADCP,ioos:station:wmo:42887:1,2013-04-03T21:00:00Z,28.1910,-88.4960,11.2,11111222 
ADCP,ioos:station:wmo:42887:1,2013-04-03T21:20:00Z,28.1910,-88.4960,11.7,11111222 
ADCP,ioos:station:wmo:42887:1,2013-04-03T21:40:00Z,28.1910,-88.4960,12.5,11111222 
ADCP,ioos:station:wmo:42887:1,2013-04-03T22:00:00Z,28.1910,-88.4960,11.9,11111222 
ADCP,ioos:station:wmo:42887:1,2013-04-03T22:20:00Z,28.1910,-88.4960,10.7,11111222 
ADCP,ioos:station:wmo:42887:1,2013-04-03T22:40:00Z,28.1910,-88.4960,12.0,11111222 
ADCP,ioos:station:wmo:42887:1,2013-04-03T23:00:00Z,28.1910,-88.4960,13.9,11111222 
ADCP,ioos:station:wmo:42887:1,2013-04-03T23:20:00Z,28.1910,-88.4960,9.5,11111222 
ADCP,ioos:station:wmo:42887:1,2013-04-03T23:40:00Z,28.1910,-88.4960,-0.5,11144222 
ADCP,ioos:station:wmo:42887:1,2013-04-04T00:00:00Z,28.1910,-88.4960,-1.9,11144222 
ADCP,ioos:station:wmo:42887:1,2013-04-04T00:20:00Z,28.1910,-88.4960,-9.2,11144222 
ADCP,ioos:station:wmo:42887:1,2013-04-04T00:40:00Z,28.1910,-88.4960,-32.6,11144222 
ADCP,ioos:station:wmo:42887:1,2013-04-04T01:00:00Z,28.1910,-88.4960,-77.0,99999999 
ADCP,ioos:station:wmo:42887:1,2013-04-04T01:20:00Z,28.1910,-88.4960,-77.2,99999999 
ADCP,ioos:station:wmo:42887:1,2013-04-04T01:40:00Z,28.1910,-88.4960,-77.1,99999999 
ADCP,ioos:station:wmo:42887:1,2013-04-04T02:00:00Z,28.1910,-88.4960,-76.8,99999999 
ADCP,ioos:station:wmo:42887:1,2013-04-04T02:20:00Z,28.1910,-88.4960,-4.5,11144222 
ADCP,ioos:station:wmo:42887:1,2013-04-04T02:40:00Z,28.1910,-88.4960,4.5,11111222 
ADCP,ioos:station:wmo:42887:1,2013-04-04T03:00:00Z,28.1910,-88.4960,9.3,11111222 
ADCP,ioos:station:wmo:42887:1,2013-04-04T03:20:00Z,28.1910,-88.4960,10.4,11111222 
ADCP,ioos:station:wmo:42887:1,2013-04-04T03:40:00Z,28.1910,-88.4960,-76.7,99999999 
ADCP,ioos:station:wmo:42887:1,2013-04-04T04:00:00Z,28.1910,-88.4960,-76.6,99999999 
ADCP,ioos:station:wmo:42887:1,2013-04-04T04:20:00Z,28.1910,-88.4960,-44.5,11144222 
ADCP,ioos:station:wmo:42887:1,2013-04-04T04:40:00Z,28.1910,-88.4960,0.7,11111222 
ADCP,ioos:station:wmo:42887:1,2013-04-04T05:00:00Z,28.1910,-88.4960,0.4,11111222 
ADCP,ioos:station:wmo:42887:1,2013-04-04T05:20:00Z,28.1910,-88.4960,4.2,11111222 
ADCP,ioos:station:wmo:42887:1,2013-04-04T05:40:00Z,28.1910,-88.4960,6.9,11111222 
ADCP,ioos:station:wmo:42887:1,2013-04-04T06:00:00Z,28.1910,-88.4960,6.3,11111222 
ADCP,ioos:station:wmo:42887:1,2013-04-04T06:20:00Z,28.1910,-88.4960,7.0,11111222 
ADCP,ioos:station:wmo:42887:1,2013-04-04T06:40:00Z,28.1910,-88.4960,7.8,11111222 
ADCP,ioos:station:wmo:42887:1,2013-04-04T07:00:00Z,28.1910,-88.4960,6.8,11111222 
ADCP,ioos:station:wmo:42887:1,2013-04-04T07:20:00Z,28.1910,-88.4960,9.0,11111222 
ADCP,ioos:station:wmo:42887:1,2013-04-04T07:40:00Z,28.1910,-88.4960,8.8,11111222 
ADCP,ioos:station:wmo:42887:1,2013-04-04T08:00:00Z,28.1910,-88.4960,9.7,11111222 
ADCP,ioos:station:wmo:42887:1,2013-04-04T08:20:00Z,28.1910,-88.4960,9.7,11111222 
ADCP,ioos:station:wmo:42887:1,2013-04-04T08:40:00Z,28.1910,-88.4960,5.1,11111222 
ADCP,ioos:station:wmo:42887:1,2013-04-04T09:00:00Z,28.1910,-88.4960,8.1,11111222 
ADCP,ioos:station:wmo:42887:1,2013-04-04T09:20:00Z,28.1910,-88.4960,9.3,11111222 
ADCP,ioos:station:wmo:42887:1,2013-04-04T09:40:00Z,28.1910,-88.4960,11.2,11111222 
ADCP,ioos:station:wmo:42887:1,2013-04-04T10:00:00Z,28.1910,-88.4960,11.3,11111222 
ADCP,ioos:station:wmo:42887:1,2013-04-04T10:20:00Z,28.1910,-88.4960,11.3,11111222 
ADCP,ioos:station:wmo:42887:1,2013-04-04T10:40:00Z,28.1910,-88.4960,12.4,11111222 
ADCP,ioos:station:wmo:42887:1,2013-04-04T11:00:00Z,28.1910,-88.4960,12.1,11111222 
ADCP,ioos:station:wmo:42887:1,2013-04-04T11:20:00Z,28.1910,-88.4960,12.6,11111222 
ADCP,ioos:station:wmo:42887:1,2013-04-04T11:40:00Z,28.1910,-88.4960,12.3,11111222 
ADCP,ioos:station:wmo:42887:1,2013-04-04T12:00:00Z,28.1910,-88.4960,12.3,11111222 
ADCP,ioos:station:wmo:42887:1,2013-04-04T12:20:00Z,28.1910,-88.4960,12.2,11111222 
ADCP,ioos:station:wmo:42887:1,2013-04-04T12:40:00Z,28.1910,-88.4960,12.4,11111222 
ADCP,ioos:station:wmo:42887:1,2013-04-04T13:00:00Z,28.1910,-88.4960,12.5,11111222 
ADCP,ioos:station:wmo:42887:1,2013-04-04T13:20:00Z,28.1910,-88.4960,12.7,11111222 
ADCP,ioos:station:wmo:42887:1,2013-04-04T13:40:00Z,28.1910,-88.4960,11.9,11111222 
ADCP,ioos:station:wmo:42887:1,2013-04-04T14:00:00Z,28.1910,-88.4960,12.0,11111222 
ADCP,ioos:station:wmo:42887:1,2013-04-04T14:20:00Z,28.1910,-88.4960,12.3,11111222 
ADCP,ioos:station:wmo:42887:1,2013-04-04T14:40:00Z,28.1910,-88.4960,12.7,11111222 
ADCP,ioos:station:wmo:42887:1,2013-04-04T15:00:00Z,28.1910,-88.4960,12.7,11111222 
ADCP,ioos:station:wmo:42887:1,2013-04-04T15:20:00Z,28.1910,-88.4960,12.5,11111222 
ADCP,ioos:station:wmo:42887:1,2013-04-04T15:40:00Z,28.1910,-88.4960,11.8,11111222 
ADCP,ioos:station:wmo:42887:1,2013-04-04T16:00:00Z,28.1910,-88.4960,12.2,11111222 
ADCP,ioos:station:wmo:42887:1,2013-04-04T16:20:00Z,28.1910,-88.4960,12.2,11111222 
ADCP,ioos:station:wmo:42887:1,2013-04-04T16:40:00Z,28.1910,-88.4960,6.3,11111222 
ADCP,ioos:station:wmo:42887:1,2013-04-04T17:00:00Z,28.1910,-88.4960,10.5,11111222 
ADCP,ioos:station:wmo:42887:1,2013-04-04T17:20:00Z,28.1910,-88.4960,11.8,11111222 
ADCP,ioos:station:wmo:42887:1,2013-04-04T17:40:00Z,28.1910,-88.4960,10.9,11111222 
ADCP,ioos:station:wmo:42887:1,2013-04-04T18:00:00Z,28.1910,-88.4960,11.0,11111222 
ADCP,ioos:station:wmo:42887:1,2013-04-04T18:20:00Z,28.1910,-88.4960,11.1,11111222 
ADCP,ioos:station:wmo:42887:1,2013-04-04T18:40:00Z,28.1910,-88.4960,11.5,11111222 
ADCP,ioos:station:wmo:42887:1,2013-04-04T19:00:00Z,28.1910,-88.4960,11.0,11111222 
ADCP,ioos:station:wmo:42887:1,2013-04-04T19:20:00Z,28.1910,-88.4960,11.1,11111222 
ADCP,ioos:station:wmo:42887:1,2013-04-04T19:40:00Z,28.1910,-88.4960,10.9,11111222 
ADCP,ioos:station:wmo:42887:1,2013-04-04T20:00:00Z,28.1910,-88.4960,10.8,11111222 
ADCP,ioos:station:wmo:42887:1,2013-04-04T20:20:00Z,28.1910,-88.4960,11.0,11111222 
ADCP,ioos:station:wmo:42887:1,2013-04-04T20:40:00Z,28.1910,-88.4960,11.3,11111222 
ADCP,ioos:station:wmo:42887:1,2013-04-04T21:00:00Z,28.1910,-88.4960,11.0,11111222 
ADCP,ioos:station:wmo:42887:1,2013-04-04T21:20:00Z,28.1910,-88.4960,11.3,11111222 
ADCP,ioos:station:wmo:42887:1,2013-04-04T21:40:00Z,28.1910,-88.4960,12.0,11111222 
ADCP,ioos:station:wmo:42887:1,2013-04-04T22:00:00Z,28.1910,-88.4960,12.0,11111222 
ADCP,ioos:station:wmo:42887:1,2013-04-04T22:20:00Z,28.1910,-88.4960,12.6,11111222 
ADCP,ioos:station:wmo:42887:1,2013-04-04T22:40:00Z,28.1910,-88.4960,14.7,11111222 
ADCP,ioos:station:wmo:42887:1,2013-04-04T23:00:00Z,28.1910,-88.4960,16.0,11111222 
ADCP,ioos:station:wmo:42887:1,2013-04-04T23:20:00Z,28.1910,-88.4960,15.4,11111222 
ADCP,ioos:station:wmo:42887:1,2013-04-04T23:40:00Z,28.1910,-88.4960,15.3,11111222 
ADCP,ioos:station:wmo:42887:1,2013-04-05T00:00:00Z,28.1910,-88.4960,15.6,11111222 
ADCP,ioos:station:wmo:42887:1,2013-04-05T00:20:00Z,28.1910,-88.4960,15.6,11111222 
ADCP,ioos:station:wmo:42887:1,2013-04-05T00:40:00Z,28.1910,-88.4960,15.5,11111222 
ADCP,ioos:station:wmo:42887:1,2013-04-05T01:00:00Z,28.1910,-88.4960,14.7,11111222 
ADCP,ioos:station:wmo:42887:1,2013-04-05T01:20:00Z,28.1910,-88.4960,13.8,11111222 
ADCP,ioos:station:wmo:42887:1,2013-04-05T01:40:00Z,28.1910,-88.4960,14.7,11111222 
ADCP,ioos:station:wmo:42887:1,2013-04-05T02:00:00Z,28.1910,-88.4960,14.6,11111222 
ADCP,ioos:station:wmo:42887:1,2013-04-05T02:20:00Z,28.1910,-88.4960,14.7,11111222 
ADCP,ioos:station:wmo:42887:1,2013-04-05T03:00:00Z,28.1910,-88.4960,15.3,11111222 
ADCP,ioos:station:wmo:42887:1,2013-04-05T03:20:00Z,28.1910,-88.4960,15.2,11111222 
ADCP,ioos:station:wmo:42887:1,2013-04-05T03:40:00Z,28.1910,-88.4960,15.4,11111222 
ADCP,ioos:station:wmo:42887:1,2013-04-05T04:00:00Z,28.1910,-88.4960,15.5,11111222 
ADCP,ioos:station:wmo:42887:1,2013-04-05T04:20:00Z,28.1910,-88.4960,15.5,11111222 
ADCP,ioos:station:wmo:42887:1,2013-04-05T04:40:00Z,28.1910,-88.4960,15.0,11111222 
ADCP,ioos:station:wmo:42887:1,2013-04-05T05:00:00Z,28.1910,-88.4960,14.2,11111222 
ADCP,ioos:station:wmo:42887:1,2013-04-05T05:20:00Z,28.1910,-88.4960,14.7,11111222 
ADCP,ioos:station:wmo:42887:1,2013-04-05T05:40:00Z,28.1910,-88.4960,13.9,11111222 
ADCP,ioos:station:wmo:42887:1,2013-04-05T06:00:00Z,28.1910,-88.4960,13.7,11111222 
ADCP,ioos:station:wmo:42887:1,2013-04-05T06:20:00Z,28.1910,-88.4960,13.1,11111222 
ADCP,ioos:station:wmo:42887:1,2013-04-05T06:40:00Z,28.1910,-88.4960,13.3,11111222 
ADCP,ioos:station:wmo:42887:1,2013-04-05T07:00:00Z,28.1910,-88.4960,13.3,11111222 
ADCP,ioos:station:wmo:42887:1,2013-04-05T07:20:00Z,28.1910,-88.4960,12.9,11111222 
ADCP,ioos:station:wmo:42887:1,2013-04-05T07:40:00Z,28.1910,-88.4960,13.0,11111222 
ADCP,ioos:station:wmo:42887:1,2013-04-05T08:00:00Z,28.1910,-88.4960,12.6,11111222 
ADCP,ioos:station:wmo:42887:1,2013-04-05T08:20:00Z,28.1910,-88.4960,12.3,11111222 
ADCP,ioos:station:wmo:42887:1,2013-04-05T08:40:00Z,28.1910,-88.4960,12.3,11111222 
ADCP,ioos:station:wmo:42887:1,2013-04-05T09:00:00Z,28.1910,-88.4960,12.3,11111222 
ADCP,ioos:station:wmo:42887:1,2013-04-05T09:20:00Z,28.1910,-88.4960,11.2,11111222 
ADCP,ioos:station:wmo:42887:1,2013-04-05T09:40:00Z,28.1910,-88.4960,11.4,11111222 
ADCP,ioos:station:wmo:42887:1,2013-04-05T10:00:00Z,28.1910,-88.4960,10.8,11111222 
ADCP,ioos:station:wmo:42887:1,2013-04-05T10:20:00Z,28.1910,-88.4960,11.0,11111222 
ADCP,ioos:station:wmo:42887:1,2013-04-05T10:40:00Z,28.1910,-88.4960,10.9,11111222 
ADCP,ioos:station:wmo:42887:1,2013-04-05T11:00:00Z,28.1910,-88.4960,10.6,11111222 
ADCP,ioos:station:wmo:42887:1,2013-04-05T11:20:00Z,28.1910,-88.4960,10.6,11111222 
ADCP,ioos:station:wmo:42887:1,2013-04-05T11:40:00Z,28.1910,-88.4960,10.8,11111222 
ADCP,ioos:station:wmo:42887:1,2013-04-05T12:00:00Z,28.1910,-88.4960,10.8,11111222 
ADCP,ioos:station:wmo:42887:1,2013-04-05T12:20:00Z,28.1910,-88.4960,10.9,11111222 
ADCP,ioos:station:wmo:42887:1,2013-04-05T12:40:00Z,28.1910,-88.4960,10.5,11111222 
ADCP,ioos:station:wmo:42887:1,2013-04-05T13:00:00Z,28.1910,-88.4960,10.5,11111222 
ADCP,ioos:station:wmo:42887:1,2013-04-05T13:20:00Z,28.1910,-88.4960,10.6,11111222 
ADCP,ioos:station:wmo:42887:1,2013-04-05T13:40:00Z,28.1910,-88.4960,10.4,11111222 
ADCP,ioos:station:wmo:42887:1,2013-04-05T14:00:00Z,28.1910,-88.4960,10.6,11111222 
ADCP,ioos:station:wmo:42887:1,2013-04-05T14:20:00Z,28.1910,-88.4960,9.9,11111222 
ADCP,ioos:station:wmo:42887:1,2013-04-05T14:40:00Z,28.1910,-88.4960,10.6,11111222 
ADCP,ioos:station:wmo:42887:1,2013-04-05T15:00:00Z,28.1910,-88.4960,11.2,11111222 
ADCP,ioos:station:wmo:42887:1,2013-04-05T15:20:00Z,28.1910,-88.4960,10.5,11111222 
ADCP,ioos:station:wmo:42887:1,2013-04-05T15:40:00Z,28.1910,-88.4960,10.9,11111222 
ADCP,ioos:station:wmo:42887:1,2013-04-05T16:00:00Z,28.1910,-88.4960,10.9,11111222 
ADCP,ioos:station:wmo:42887:1,2013-04-05T16:20:00Z,28.1910,-88.4960,10.7,11111222 
ADCP,ioos:station:wmo:42887:1,2013-04-05T16:40:00Z,28.1910,-88.4960,10.8,11111222 
ADCP,ioos:station:wmo:42887:1,2013-04-05T17:00:00Z,28.1910,-88.4960,10.8,11111222 
ADCP,ioos:station:wmo:42887:1,2013-04-05T17:20:00Z,28.1910,-88.4960,10.8,11111222 
ADCP,ioos:station:wmo:42887:1,2013-04-05T17:40:00Z,28.1910,-88.4960,11.0,11111222 
ADCP,ioos:station:wmo:42887:1,2013-04-05T18:00:00Z,28.1910,-88.4960,11.3,11111222 
ADCP,ioos:station:wmo:42887:1,2013-04-05T18:20:00Z,28.1910,-88.4960,11.3,11111222 
ADCP,ioos:station:wmo:42887:1,2013-04-05T18:40:00Z,28.1910,-88.4960,11.5,11111222 
ADCP,ioos:station:wmo:42887:1,2013-04-05T19:00:00Z,28.1910,-88.4960,11.6,11111222 
ADCP,ioos:station:wmo:42887:1,2013-04-05T19:20:00Z,28.1910,-88.4960,12.3,11111222 
ADCP,ioos:station:wmo:42887:1,2013-04-05T19:40:00Z,28.1910,-88.4960,12.7,11111222 
ADCP,ioos:station:wmo:42887:1,2013-04-05T20:00:00Z,28.1910,-88.4960,12.7,11111222 
ADCP,ioos:station:wmo:42887:1,2013-04-05T20:20:00Z,28.1910,-88.4960,12.9,11111222 
ADCP,ioos:station:wmo:42887:1,2013-04-05T20:40:00Z,28.1910,-88.4960,13.0,11111222 
ADCP,ioos:station:wmo:42887:1,2013-04-05T21:00:00Z,28.1910,-88.4960,12.6,11111222 
ADCP,ioos:station:wmo:42887:1,2013-04-05T21:20:00Z,28.1910,-88.4960,12.9,11111222 
ADCP,ioos:station:wmo:42887:1,2013-04-05T21:40:00Z,28.1910,-88.4960,13.0,11111222 
ADCP,ioos:station:wmo:42887:1,2013-04-05T22:00:00Z,28.1910,-88.4960,13.1,11111222 
ADCP,ioos:station:wmo:42887:1,2013-04-05T22:20:00Z,28.1910,-88.4960,13.0,11111222 
ADCP,ioos:station:wmo:42887:1,2013-04-05T22:40:00Z,28.1910,-88.4960,13.1,11111222 
ADCP,ioos:station:wmo:42887:1,2013-04-05T23:00:00Z,28.1910,-88.4960,12.9,11111222 
ADCP,ioos:station:wmo:42887:1,2013-04-05T23:20:00Z,28.1910,-88.4960,13.1,11111222 
ADCP,ioos:station:wmo:42887:1,2013-04-05T23:40:00Z,28.1910,-88.4960,13.0,11111222 
ADCP,ioos:station:wmo:42887:1,2013-04-06T00:00:00Z,28.1910,-88.4960,12.7,11111222 
ADCP,ioos:station:wmo:42887:1,2013-04-06T00:20:00Z,28.1910,-88.4960,12.5,11111222 
ADCP,ioos:station:wmo:42887:1,2013-04-06T00:40:00Z,28.1910,-88.4960,12.6,11111222 
ADCP,ioos:station:wmo:42887:1,2013-04-06T01:00:00Z,28.1910,-88.4960,12.7,11111222 
ADCP,ioos:station:wmo:42887:1,2013-04-06T01:20:00Z,28.1910,-88.4960,12.6,11111222 
ADCP,ioos:station:wmo:42887:1,2013-04-06T01:40:00Z,28.1910,-88.4960,12.4,11111222 
ADCP,ioos:station:wmo:42887:1,2013-04-06T02:00:00Z,28.1910,-88.4960,12.6,11111222 
ADCP,ioos:station:wmo:42887:1,2013-04-06T02:20:00Z,28.1910,-88.4960,12.4,11111222 
ADCP,ioos:station:wmo:42887:1,2013-04-06T02:40:00Z,28.1910,-88.4960,12.8,11111222 
ADCP,ioos:station:wmo:42887:1,2013-04-06T03:00:00Z,28.1910,-88.4960,12.8,11111222 
ADCP,ioos:station:wmo:42887:1,2013-04-06T03:20:00Z,28.1910,-88.4960,13.0,11111222 
ADCP,ioos:station:wmo:42887:1,2013-04-06T03:40:00Z,28.1910,-88.4960,12.8,11111222 
ADCP,ioos:station:wmo:42887:1,2013-04-06T04:00:00Z,28.1910,-88.4960,12.9,11111222 
ADCP,ioos:station:wmo:42887:1,2013-04-06T04:20:00Z,28.1910,-88.4960,13.0,11111222 
ADCP,ioos:station:wmo:42887:1,2013-04-06T04:40:00Z,28.1910,-88.4960,13.3,11111222 
ADCP,ioos:station:wmo:42887:1,2013-04-06T05:00:00Z,28.1910,-88.4960,13.2,11111222 
ADCP,ioos:station:wmo:42887:1,2013-04-06T05:20:00Z,28.1910,-88.4960,13.2,11111222 
ADCP,ioos:station:wmo:42887:1,2013-04-06T05:40:00Z,28.1910,-88.4960,13.2,11111222 
ADCP,ioos:station:wmo:42887:1,2013-04-06T06:00:00Z,28.1910,-88.4960,13.1,11111222 
ADCP,ioos:station:wmo:42887:1,2013-04-06T06:20:00Z,28.1910,-88.4960,13.1,11111222 
ADCP,ioos:station:wmo:42887:1,2013-04-06T06:40:00Z,28.1910,-88.4960,13.0,11111222 
ADCP,ioos:station:wmo:42887:1,2013-04-06T07:00:00Z,28.1910,-88.4960,12.8,11111222 
ADCP,ioos:station:wmo:42887:1,2013-04-06T07:20:00Z,28.1910,-88.4960,12.9,11111222 
ADCP,ioos:station:wmo:42887:1,2013-04-06T07:40:00Z,28.1910,-88.4960,13.2,11111222 
ADCP,ioos:station:wmo:42887:1,2013-04-06T08:00:00Z,28.1910,-88.4960,13.5,11111222 
ADCP,ioos:station:wmo:42887:1,2013-04-06T08:20:00Z,28.1910,-88.4960,13.5,11111222 
ADCP,ioos:station:wmo:42887:1,2013-04-06T08:40:00Z,28.1910,-88.4960,13.4,11111222 
ADCP,ioos:station:wmo:42887:1,2013-04-06T09:00:00Z,28.1910,-88.4960,13.6,11111222 
ADCP,ioos:station:wmo:42887:1,2013-04-06T09:20:00Z,28.1910,-88.4960,13.7,11111222 
ADCP,ioos:station:wmo:42887:1,2013-04-06T09:40:00Z,28.1910,-88.4960,13.9,11111222 
ADCP,ioos:station:wmo:42887:1,2013-04-06T10:00:00Z,28.1910,-88.4960,13.6,11111222 
ADCP,ioos:station:wmo:42887:1,2013-04-06T10:20:00Z,28.1910,-88.4960,13.4,11111222 
ADCP,ioos:station:wmo:42887:1,2013-04-06T10:40:00Z,28.1910,-88.4960,13.1,11111222 
ADCP,ioos:station:wmo:42887:1,2013-04-06T11:00:00Z,28.1910,-88.4960,12.7,11111222 
ADCP,ioos:station:wmo:42887:1,2013-04-06T11:20:00Z,28.1910,-88.4960,13.0,11111222 
ADCP,ioos:station:wmo:42887:1,2013-04-06T11:40:00Z,28.1910,-88.4960,12.8,11111222 
ADCP,ioos:station:wmo:42887:1,2013-04-06T12:00:00Z,28.1910,-88.4960,12.5,11111222 
ADCP,ioos:station:wmo:42887:1,2013-04-06T12:20:00Z,28.1910,-88.4960,12.4,11111222 
ADCP,ioos:station:wmo:42887:1,2013-04-06T12:40:00Z,28.1910,-88.4960,12.4,11111222 
ADCP,ioos:station:wmo:42887:1,2013-04-06T13:00:00Z,28.1910,-88.4960,12.7,11111222 
ADCP,ioos:station:wmo:42887:1,2013-04-06T13:20:00Z,28.1910,-88.4960,13.1,11111222 
ADCP,ioos:station:wmo:42887:1,2013-04-06T13:40:00Z,28.1910,-88.4960,13.1,11111222 
ADCP,ioos:station:wmo:42887:1,2013-04-06T14:00:00Z,28.1910,-88.4960,12.9,11111222 
ADCP,ioos:station:wmo:42887:1,2013-04-06T14:20:00Z,28.1910,-88.4960,13.0,11111222 
ADCP,ioos:station:wmo:42887:1,2013-04-06T14:40:00Z,28.1910,-88.4960,13.3,11111222 
ADCP,ioos:station:wmo:42887:1,2013-04-06T15:00:00Z,28.1910,-88.4960,13.6,11111222 
ADCP,ioos:station:wmo:42887:1,2013-04-06T15:20:00Z,28.1910,-88.4960,13.5,11111222 
ADCP,ioos:station:wmo:42887:1,2013-04-06T15:40:00Z,28.1910,-88.4960,14.1,11111222 
ADCP,ioos:station:wmo:42887:1,2013-04-06T16:00:00Z,28.1910,-88.4960,14.5,11111222 
ADCP,ioos:station:wmo:42887:1,2013-04-06T16:20:00Z,28.1910,-88.4960,14.9,11111222 
ADCP,ioos:station:wmo:42887:1,2013-04-06T16:40:00Z,28.1910,-88.4960,14.7,11111222 
ADCP,ioos:station:wmo:42887:1,2013-04-06T17:00:00Z,28.1910,-88.4960,14.7,11111222 
ADCP,ioos:station:wmo:42887:1,2013-04-06T17:20:00Z,28.1910,-88.4960,15.2,11111222 
ADCP,ioos:station:wmo:42887:1,2013-04-06T17:40:00Z,28.1910,-88.4960,14.9,11111222 
ADCP,ioos:station:wmo:42887:1,2013-04-06T18:00:00Z,28.1910,-88.4960,14.9,11111222 
ADCP,ioos:station:wmo:42887:1,2013-04-06T18:20:00Z,28.1910,-88.4960,14.9,11111222 
ADCP,ioos:station:wmo:42887:1,2013-04-06T18:40:00Z,28.1910,-88.4960,14.8,11111222 
ADCP,ioos:station:wmo:42887:1,2013-04-06T19:00:00Z,28.1910,-88.4960,15.4,11111222 
ADCP,ioos:station:wmo:42887:1,2013-04-06T19:20:00Z,28.1910,-88.4960,15.4,11111222 
ADCP,ioos:station:wmo:42887:1,2013-04-06T19:40:00Z,28.1910,-88.4960,15.2,11111222 
ADCP,ioos:station:wmo:42887:1,2013-04-06T20:00:00Z,28.1910,-88.4960,15.4,11111222 
ADCP,ioos:station:wmo:42887:1,2013-04-06T20:20:00Z,28.1910,-88.4960,15.1,11111222 
ADCP,ioos:station:wmo:42887:1,2013-04-06T20:40:00Z,28.1910,-88.4960,15.8,11111222 
ADCP,ioos:station:wmo:42887:1,2013-04-06T21:00:00Z,28.1910,-88.4960,15.2,11111222 
ADCP,ioos:station:wmo:42887:1,2013-04-06T21:20:00Z,28.1910,-88.4960,15.8,11111222 
ADCP,ioos:station:wmo:42887:1,2013-04-06T21:40:00Z,28.1910,-88.4960,15.4,11111222 
ADCP,ioos:station:wmo:42887:1,2013-04-06T22:00:00Z,28.1910,-88.4960,15.5,11111222 
ADCP,ioos:station:wmo:42887:1,2013-04-06T22:20:00Z,28.1910,-88.4960,15.0,11111222 
ADCP,ioos:station:wmo:42887:1,2013-04-06T22:40:00Z,28.1910,-88.4960,15.5,11111222 
ADCP,ioos:station:wmo:42887:1,2013-04-06T23:00:00Z,28.1910,-88.4960,15.5,11111222 
ADCP,ioos:station:wmo:42887:1,2013-04-06T23:20:00Z,28.1910,-88.4960,15.1,11111222 